Overview Statistics Trail Chart Weather Telemetry Raw packets
 

This is the latest recevied weather packets stored in our database for station/object W7TRD. If no packets are shown the sender has not sent any weather packets the latest 10 day(s).

<< 45 46 47 48 49 50 51 >>
Time Temp. Humidity Pressure Rain* Wind** Luminosity Snow
1788312294 20° C 70% 1012.1 hPa 0 mm - 16 W/m² -
1788311979 20° C 67% 1011.9 hPa 0 mm - 22 W/m² -
1788311674 20° C 66% 1011.9 hPa 0 mm - 43 W/m² -
1788311373 20° C 67% 1012 hPa 0 mm - 48 W/m² -
1788311069 20° C 66% 1012 hPa 0 mm - 50 W/m² -
1788310768 20° C 66% 1011.6 hPa 0 mm - 47 W/m² -
1788310467 20° C 66% 1012.1 hPa 0 mm - 53 W/m² -
1788310164 20° C 66% 1011.8 hPa 0 mm - 53 W/m² -
1788309863 20.56° C 66% 1011.8 hPa 0 mm - 58 W/m² -
1788309559 20.56° C 65% 1011.7 hPa 0 mm - 79 W/m² -
1788309259 20.56° C 65% 1011.7 hPa 0 mm - 86 W/m² -
1788308954 20.56° C 65% 1011.8 hPa 0 mm - 110 W/m² -
1788308655 20.56° C 64% 1011.7 hPa 0 mm - 123 W/m² -
1788308349 20.56° C 65% 1011.7 hPa 0 mm - 138 W/m² -
1788308049 20.56° C 64% 1011.5 hPa 0 mm - 140 W/m² -
1788307744 20.56° C 64% 1011.4 hPa 0 mm - 156 W/m² -
1788307439 21.11° C 63% 1011.6 hPa 0 mm - 138 W/m² -
1788307134 21.11° C 64% 1011.9 hPa 0 mm - 152 W/m² -
1788306834 21.11° C 63% 1011.9 hPa 0 mm - 156 W/m² -
1788306530 20.56° C 64% 1011.9 hPa 0 mm - 153 W/m² -
1788306229 20.56° C 65% 1011.9 hPa 0 mm - 136 W/m² -
1788305925 20.56° C 67% 1012 hPa 0 mm - 149 W/m² -
1788305620 20.56° C 65% 1012 hPa 0 mm - 192 W/m² -
1788305316 20.56° C 67% 1012.1 hPa 0 mm - 186 W/m² -
1788305011 20.56° C 65% 1012.1 hPa 0 mm - 209 W/m² -

* Rain latest hour (hover to see other rain measurements)
** Current wind speed in m/s (hover to see current wind gust speed)